Location: *
(51.1248°S, 108.4023°W)
Time: 03:03:21
(UTC+00:00)

N. Korean satellite - Pass Details

Date: 04 October 2021
Orbit: 450 x 494 km, 97.3° (Epoch: 27 October)

Event Time Altitude Azimuth Distance (km) Brightness Sun altitude
Rises 10:41:49 0° 42° (NE) 2,585 10.4 -17.4°
Reaches altitude 10° 10:44:05 10° 54° (NE) 1,705 9.6 -17.1°
Maximum altitude 10:47:14 28° 113° (ESE) 975 8.9 -16.6°
Drops below altitude 10° 10:50:24 10° 172° (S) 1,706 9.8 -16.2°
Sets 10:52:40 0° 184° (S) 2,587 10.6 -15.9°
